Location: Derby
(52.9213°N, 1.4761°W)
Time: 19:17:16
(UTC+01:00)

Vanguard 1 - All Passes

Search period start: 19 May 2025 00:00
Search period end: 29 May 2025 00:00
Orbit: 650 x 3821 km, 34.2° (Epoch: 18 May)

Date Brightness Start Highest point End Pass type
(mag) Time Alt. Az. Time Alt. Az. Time Alt. Az.
19 May - 15:54:33 10° SSE 15:59:41 12° SE 16:04:14 10° SE daylight
19 May - 18:08:46 10° SSW 18:20:52 24° SSE 18:29:07 10° ESE daylight
19 May - 20:30:57 10° SW 20:41:22 26° S 20:48:04 10° SE daylight
19 May - 22:55:34 10° WSW 23:00:21 15° SSW 23:04:06 10° S visible
20 May - 16:09:03 10° S 16:18:44 16° SSE 16:26:28 10° ESE daylight
20 May - 18:26:57 10° SW 18:40:00 27° S 18:48:35 10° ESE daylight
20 May - 20:50:06 10° WSW 21:00:22 26° SSW 21:06:59 10° SE daylight
20 May - 23:15:52 10° WSW 23:19:02 12° SW 23:21:44 10° SSW visible
21 May - 16:25:29 10° S 16:37:49 20° SSE 16:47:04 10° ESE daylight
21 May - 18:45:29 10° SW 18:59:08 30° S 19:07:53 10° ESE daylight
21 May - 21:09:24 10° WSW 21:19:18 25° SSW 21:25:46 10° SSE daylight
22 May - 16:42:46 10° SSW 16:56:55 24° SSE 17:07:03 10° ESE daylight
22 May - 19:04:17 10° SW 19:18:15 31° S 19:27:01 10° ESE daylight
22 May - 21:28:52 10° WSW 21:38:10 23° SSW 21:44:22 10° SSE daylight
23 May - 14:45:17 10° SSE 14:54:26 14° SE 15:02:18 10° ESE daylight
23 May - 17:00:36 10° SSW 17:16:03 28° SSE 17:26:41 10° ESE daylight
23 May - 19:23:17 10° WSW 19:37:20 32° S 19:46:03 10° SE daylight
23 May - 21:48:31 10° WSW 21:56:57 21° SSW 22:02:47 10° SSE visible
24 May - 15:00:42 10° S 15:13:23 19° SE 15:23:41 10° ESE daylight
24 May - 17:18:51 10° SW 17:35:11 32° SSE 17:46:07 10° ESE daylight
24 May - 19:42:28 10° WSW 19:56:21 32° S 20:05:00 10° SE daylight
24 May - 22:08:25 10° WSW 22:15:37 18° SW 22:20:53 10° S visible
25 May - 15:17:22 10° SSW 15:32:23 23° SSE 15:44:04 10° ESE daylight
25 May - 17:37:24 10° SW 17:54:19 34° S 18:05:24 10° ESE daylight
25 May - 20:01:47 10° WSW 20:15:19 31° SSW 20:23:48 10° SE daylight
25 May - 22:28:48 10° WSW 22:34:12 14° SW 22:38:28 10° SSW visible
26 May - 13:24:18 10° SSE 13:29:54 11° SE 13:35:11 10° ESE daylight
26 May - 15:34:46 10° SSW 15:51:25 28° SSE 16:03:58 10° ESE daylight
26 May - 17:56:13 10° SW 18:13:27 36° S 18:24:33 10° ESE daylight
26 May - 20:21:15 10° WSW 20:34:13 29° SSW 20:42:28 10° SSE daylight
26 May - 22:50:35 10° WSW 22:52:40 11° SW 22:54:34 10° SW visible
27 May - 13:37:26 10° SSE 13:48:38 16° SE 13:58:39 10° ESE daylight
27 May - 15:52:39 10° SSW 16:10:29 32° SSE 16:23:36 10° ESE daylight
27 May - 18:15:14 10° WSW 18:32:34 37° S 18:43:36 10° ESE daylight
27 May - 20:40:51 10° WSW 20:53:00 26° SSW 21:00:57 10° SSE daylight
28 May - 13:53:10 10° S 14:07:26 21° SE 14:19:49 10° ESE daylight
28 May - 16:10:54 10° SW 16:29:36 35° SSE 16:43:01 10° ESE daylight
28 May - 18:34:24 10° WSW 18:51:38 37° S 19:02:33 10° SE daylight
28 May - 21:00:38 10° WSW 21:11:42 23° SW 21:19:13 10° SSE daylight
